Preview of NWS' New Version of Forecast
This preview is not operational and should not be used for support decisions.

Regional Weather Roundup (RWR)

Issued by Philadelphia/Mt Holly (PHI)

                            
000
ASUS41 KPHI 251612
RWRPHI

REGIONAL WEATHER ROUNDUP
NATIONAL WEATHER SERVICE MOUNT HOLLY NJ
1200 PM EDT SAT MAY 25 2019

NOTE:  "FAIR" INDICATES FEW OR NO CLOUDS BELOW 12,000 FEET WITH NO
SIGNIFICANT WEATHER AND/OR OBSTRUCTIONS TO VISIBILITY.

 * = STATION DOES NOT REPORT PRECIPITATION (E.G. RAIN, SNOW, ETC.) 
        OR FOG.

NJZ015>026-251700-
SOUTHERN NEW JERSEY
  
CITY           SKY/WX    TMP DP  RH WIND       PRES   REMARKS
POMONA         FAIR      67  49  52 SE12      30.26S                  
WILDWOOD*      FAIR      69  55  60 S12       30.26S                  
MILLVILLE      FAIR      69  53  56 S8        30.24S                  
MOUNT HOLLY    PTSUNNY   70  54  56 VRB5      30.24S                  
TRENTON        CLOUDY    67  54  63 S12       30.23F                  

$$
NJZ001>014-251700-
NORTHERN NEW JERSEY
  
CITY           SKY/WX    TMP DP  RH WIND       PRES   REMARKS
SUSSEX         CLOUDY    67  55  65 S7        30.22F                  
ANDOVER*         N/A     66  53  63 VRB7      30.23S                  
MORRISTOWN     PTSUNNY   68  54  60 S8        30.23S                  
NEWARK         PTSUNNY   69  51  52 S8        30.23F                  
TETERBORO      FAIR      68  51  54 S9G20     30.22F                  
CALDWELL       FAIR      71  51  49 S6        30.23F                  
SOMERVILLE     CLOUDY    68  53  58 VRB6      30.22S                  
ALLAIRE*       FAIR      66  49  54 S8        30.26F                  
TOMS RIVER*    CLOUDY    70  52  52 S8        30.25F                  

$$
PAZ043-044-047-054-055-060>062-066>071-251700-
EASTERN PENNSYLVANIA
  
CITY           SKY/WX    TMP DP  RH WIND       PRES   REMARKS
PHILADELPHIA   CLOUDY    68  52  56 S6        30.24S                  
NORTH PHILA    CLOUDY    70  53  54 SW9       30.25S                  
BLUE BELL*     CLOUDY    68  53  58 S9        30.24S                  
DOYLESTOWN     CLOUDY    68  52  56 S8        30.23S                  
QUAKERTOWN*    CLOUDY    66  54  63 SE8       30.24                   
PERKASIE*      CLOUDY    64  54  68 S6        30.25S                  
POTTSTOWN      CLOUDY    65  52  62 S6        30.25S                  
LANCASTER      CLOUDY    70  56  61 SE12      30.21F                  
COATESVILLE    FAIR      64  55  72 VRB6      30.25S                  
WEST CHESTER   CLOUDY    66  54  63 SE5       30.24S                  
READING        CLOUDY    68  57  68 VRB5      30.21S                  
ALLENTOWN      CLOUDY    68  53  58 VRB6      30.22F                  
QN CITY/ALNTWN CLOUDY    66  54  63 S8        30.24S                  
MOUNT POCONO   CLOUDY    59  52  77 S12       30.23R                  
HAZLETON       CLOUDY    63  50  63 S7        30.24F                  
LEHIGHTON      CLOUDY    66  52  59 S5        30.22F                  
WILKES BARRE   CLOUDY    67  53  61 VRB7G17   30.18F                  

$$
DEZALL-MDZ008-012-015-019-020-251700-
DELAWARE AND EASTERN MARYLAND
  
CITY           SKY/WX    TMP DP  RH WIND       PRES   REMARKS
WILMINGTON     CLOUDY    67  55  65 S15       30.24F                  
DOVER          PTSUNNY   67  58  72 E13       30.23F                  
CHESWOLD         N/A     68  59  73 E8        30.24S                  
GEORGETOWN     CLOUDY    70  55  59 S10       30.24S                  
EASTON         MOSUNNY   72  59  64 E9        30.26S                  
STEVENSVILLE   CLOUDY    72  57  60 SE12      30.22S                  
PATUXENT       FAIR      73  62  68 SE13      30.22                   
OCEAN CITY     CLOUDY    67  58  72 SE10      30.25S                  
WALLOPS ISLAND PTSUNNY   71  60  68 E10       30.24R                  
CAMBRIDGE      CLOUDY    72  59  64 SE8G14    30.22S                  
SALISBURY      CLOUDY    73  58  59 E12       30.22F                  

$$
PAZ001-021-NYZ056-072-MDZ011-DCZ001-251700-
OTHER NEARBY LOCATIONS
  
CITY           SKY/WX    TMP DP  RH WIND       PRES   REMARKS
HARRISBURG     PTSUNNY   73  57  57 SE7       30.18F                  
STATE COLLEGE  SUNNY     70  57  64 SW13      30.15F                  
WILLIAMSPORT   PTSUNNY   69  53  56 E13G21    30.14F                  
BINGHAMTON     CLOUDY    62  50  64 S9G18     30.14F                  
NEW YORK CITY  FAIR      69  51  52 MISG      30.27R                  
BALTIMORE      PTSUNNY   73  57  57 E12       30.20F                  
WASHINGTON DC  PTSUNNY   74  58  57 S7        30.20S                  

$$